Flag for Poland Weather past 2 weeks in Elbląg, Poland

Now
40 °F

Fog.


Feels Like: 38 °F
Forecast: 35 / 41 °F
Wind: 3 mph from Southwest

Location: Hel

Current Time: Mar 2, 2015 at 5:09:20 AM

Latest Report: Mar 2, 2015 at 3:00 AM


Visibility: 4 mi

Pressure: 29.47 "Hg

Humidity: 92%

Dew point: 38 °F

Location of ElblągLocation

Historic Weather in Elbląg — Graph

°F

Elbląg temperature yesterday

Maximum temperature yesterday: 44 °F (at 3:00 PM)
Minimum temperature yesterday: 33 °F (at 7:00 AM)
Average temperature yesterday: 39 °F

Past Weeks' High & Low Weather Summary

 TemperatureHumidityPressure
High45 °F (Feb 19, 1:00 PM)100% (Feb 27, 5:00 AM)30.57 "Hg (Feb 27, 5:00 AM)
Low26 °F (Feb 17, 7:00 AM)42% (Feb 16, 2:00 PM)29.38 "Hg (Feb 21, 3:00 PM)
Average37 °F81%30.03 "Hg
* Reported Feb 15 3:00 AM — Mar 2 3:00 AM, Elbląg, Weather by CustomWeather, © 2015

Note: Actual official high and low records may vary slightly from our data, if they occured in-between our weather recording intervals... More about our weather records

Advertising

Elbląg weather history for previous 24 hours

 ConditionsComfort  
Time TempWeatherWind HumidityBarometerVisibility
3:00 AM
Mon, Mar 2
40 °FFog.3 mph92%29.47 "Hg4 mi
2:00 AM40 °FFog.3 mph92%29.50 "Hg4 mi
1:00 AM40 °FOvercast.2 mph93%29.50 "Hg3 mi
12:00 AM40 °FFog.3 mph86%29.50 "Hg5 mi
11:00 PM
Sun, Mar 1
40 °FFog.3 mph86%29.54 "Hg4 mi
9:00 PM41 °FOvercast.6 mph81%29.55 "Hg4 mi
8:00 PM42 °FLight rain. Overcast.3 mph80%29.57 "Hg2 mi
7:00 PM42 °FLight rain. Overcast.6 mph82%29.57 "Hg2 mi
6:00 PM42 °FFog.5 mph78%29.59 "Hg4 mi
5:00 PM43 °FFog.6 mph73%29.60 "Hg5 mi
4:00 PM44 °FFog.7 mph69%29.62 "Hg5 mi
3:00 PM44 °FOvercast.7 mph68%29.64 "Hg6 mi
2:00 PM44 °FPartly sunny.6 mph70%29.68 "Hg6 mi
1:00 PM43 °FScattered clouds.7 mph69%29.71 "Hg7 mi
12:00 PM42 °FPassing clouds.6 mph71%29.76 "Hg7 mi
11:00 AM41 °FPassing clouds.6 mph73%29.79 "Hg6 mi
10:00 AM38 °FFog.6 mph83%29.82 "Hg4 mi
9:00 AM36 °FFog.5 mph90%29.85 "Hg4 mi
8:00 AM34 °FFog.5 mph95%29.88 "Hg2 mi
7:00 AM33 °FFog.5 mph96%29.90 "Hg2 mi
6:00 AM34 °FFog.3 mph94%29.93 "Hg2 mi
5:00 AM34 °FFog.5 mph94%29.95 "Hg2 mi
Weather by CustomWeather, © 2015

See weather overviewHow to use our weather pages